RSP-03

Last updated on Sun Dec 14 2025 00:02:12 GMT+0000 (Coordinated Universal Time)

1 65732U 98067XL 25346.80283155 .00161855 00000+0 13718-2 0 9992 2 65732 51.6253 136.2083 0005762 249.7501 110.2876 15.68628297 13179
UTC large
Height (km)
Speed (km/s)
/
Latitude / Longitude
Inclination (degrees)
Orbital Period (minutes)
Azimuth
Elevation
Range (km)
Doppler Factor

Next 0 passes for location: London (51.5072 / 0.1276)

Sorry there are no passes over London.